{"data":{"norad_id":69519,"epoch":"2026-09-19T15:29:14.879904Z","epoch_age_seconds":99341,"freshness":"FRESH","line1":"1 69519U 26133M   26262.64531111  .00017058  00000+0  51494-3 0  9991","line2":"2 69519  53.1554 233.6607 0002694  85.1709 274.9601 15.34392360 16634","mean_motion":15.3439236,"eccentricity":0.0002694,"inclination_deg":53.1554,"raan_deg":233.6607,"arg_perigee_deg":85.1709,"mean_anomaly_deg":274.9601,"bstar":0.00051494,"rev_number":1663,"period_min":93.848225365251,"perigee_km":460.88301951319,"apogee_km":464.56887646957,"semimajor_km":6840.8629479914,"source":"CELESTRAK","updated_at":"2026-09-20T09:00:44.212595Z"}}